Stations météo

Publicité
Ajaccio, France (7761): Température de l'air & dewpoint: 25.10.2020 23:00:00 - 31.10.2020 23:00:00 (CET)Ajaccio, France (7761): Température de l'air 5cm: 25.10.2020 23:00:00 - 31.10.2020 23:00:00 (CET)Ajaccio, France (7761): Température de l'air -20cm & Température de l'air -100cm: 25.10.2020 23:00:00 - 31.10.2020 23:00:00 (CET)Ajaccio, France (7761): Vitesse du vent & gusts: 25.10.2020 23:00:00 - 31.10.2020 23:00:00 (CET)Ajaccio, France (7761): Direction du vent: 25.10.2020 23:00:00 - 31.10.2020 23:00:00 (CET)Ajaccio, France (7761): reduced air pressure: 25.10.2020 23:00:00 - 31.10.2020 23:00:00 (CET)Ajaccio, France (7761): visibility: 25.10.2020 23:00:00 - 31.10.2020 23:00:00 (CET)Ajaccio, France (7761): Ensoleillement: 25.10.2020 23:00:00 - 31.10.2020 23:00:00 (CET)Ajaccio, France (7761): Quantités de précipitations: 25.10.2020 23:00:00 - 31.10.2020 23:00:00 (CET)
Date & Time tt [°C] td [°C] tt 5cm [°C] tt -20cm [°C] tt -100cm [°C] ff [km/h] ff [knt] fx [km/h] fx [knt] dd ppp [hPa] vv [km] sd [min] rr [mm]
31.10.2020 23:00:00 14,8 12,7 14,4 17,8 19,2 8 4 11 6 ENE 1024,8 9 0 0,0
31.10.2020 22:00:00 15,3 12,8 14,8 17,8 19,2 6 4 13 7 ENE 1024,7 4,0 0 0,0
31.10.2020 21:00:00 15,6 13,3 15,0 17,8 19,2 5 3 10 5 ENE 1024,2 10 0 0,0
31.10.2020 20:00:00 16,0 13,7 15,1 17,8 19,2 5 3 11 6 ENE 1024,2 8 0 0,0
31.10.2020 19:00:00 16,0 13,7 15,0 17,7 19,2 5 3 8 5 NE 1024,4 13 0 0,0
31.10.2020 18:00:00 16,8 13,7 15,2 17,5 19,2 7 4 11 6 SW 1024,2 46 9 0,0
31.10.2020 17:00:00 18,0 13,7 16,5 17,4 19,2 8 4 16 9 SSW 1024,1 54 60 0,0
31.10.2020 16:00:00 19,0 13,6 19,7 17,2 19,2 12 7 18 10 SW 1024,3 51 60 0,0
31.10.2020 15:00:00 19,6 13,5 20,2 17,1 19,2 10 6 29 16 SW 1024,2 44 60 0,0
31.10.2020 14:00:00 19,6 13,3 24,3 17,0 19,2 11 6 30 16 SW 1024,5 52 60 0,0
31.10.2020 13:00:00 19,4 13,3 25,6 16,8 19,2 12 7 18 10 SW 1024,8 34 60 0,0
31.10.2020 12:00:00 19,1 13,3 24,5 16,8 19,2 10 5 15 8 WSW 1025,4 30 60 0,0
31.10.2020 11:00:00 18,8 13,0 24,1 16,8 19,2 6 3 12 6 WSW 1025,7 40 60 0,0
31.10.2020 10:00:00 17,8 12,7 19,4 16,9 19,2 7 4 14 8 NNE 1025,7 28 60 0,0
31.10.2020 09:00:00 15,0 11,4 13,4 17,0 19,2 9 5 14 7 NE 1025,7 44 17 0,0
31.10.2020 08:00:00 12,7 10,2 11,8 17,0 19,2 8 5 16 9 NE 1025,4 33 7 0,0
31.10.2020 07:00:00 12,3 9,8 11,5 17,1 19,2 10 6 16 9 NE 1024,9 34 0 0,0
31.10.2020 06:00:00 12,1 9,7 11,5 17,1 19,2 11 6 16 9 NE 1024,9 31 0 0,0
31.10.2020 05:00:00 12,4 9,9 11,7 17,2 19,2 13 7 20 11 NNE 1025,0 36 0 0,0
31.10.2020 04:00:00 12,5 10,2 11,7 17,2 19,2 9 5 16 9 NE 1024,9 20 0 0,0
31.10.2020 03:00:00 12,7 10,6 11,6 17,3 19,2 9 5 14 8 NNE 1025,0 17 0 0,0
31.10.2020 02:00:00 13,1 11,0 12,0 17,3 19,2 13 7 24 13 NE 1025,2 20 0 0,0
31.10.2020 01:00:00 14,0 11,7 13,3 17,4 19,3 11 6 15 8 NNE 1025,3 23 0 0,0
31.10.2020 00:00:00 13,9 12,1 13,4 17,4 19,2 8 4 17 9 NNE 1025,5 11 0 0,0
30.10.2020 23:00:00 13,7 12,3 12,8 17,4 19,3 8 4 14 8 NE 1025,3 9 0 0,0
30.10.2020 22:00:00 13,3 12,0 11,4 17,4 19,3 7 4 10 6 ENE 1025,4 4,8 0 0,0
30.10.2020 21:00:00 14,5 13,0 12,4 17,4 19,3 6 4 11 6 NE 1025,1 6 0 0,0
30.10.2020 20:00:00 15,4 13,4 12,8 17,3 19,3 9 5 11 6 NE 1024,7 11 0 0,0
30.10.2020 19:00:00 16,8 14,4 14,8 17,2 19,3 4 2 9 5 NE 1024,7 26 0 0,0
30.10.2020 18:00:00 17,9 14,6 17,2 17,1 19,3 8 4 17 9 WSW 1024,4 33 0 0,0
30.10.2020 17:00:00 18,4 14,7 18,1 16,9 19,3 9 5 22 12 WSW 1024,1 31 37 0,0
30.10.2020 16:00:00 19,0 14,9 19,4 16,8 19,3 10 5 24 13 WSW 1024,0 37 51 0,0
30.10.2020 15:00:00 19,9 15,1 21,4 16,6 19,3 11 6 19 10 WSW 1023,9 31 60 0,0
30.10.2020 14:00:00 19,9 14,7 24,3 16,4 19,3 13 7 34 19 SW 1024,0 20 60 0,0
30.10.2020 13:00:00 20,0 14,6 24,6 16,3 19,3 11 6 17 9 WSW 1024,1 30 60 0,0
30.10.2020 12:00:00 19,8 13,3 25,6 16,3 19,3 8 4 13 7 W 1024,3 40 60 0,0
30.10.2020 11:00:00 19,9 12,4 22,2 16,4 19,3 5 3 10 6 W 1024,6 20 60 0,0
30.10.2020 10:00:00 17,1 12,2 - - - 8 4 15 8 NNE 1024,5 60 - -
30.10.2020 09:00:00 13,7 10,5 13,2 16,5 19,3 9 5 21 11 NNE 1024,5 29 60 0,0
30.10.2020 08:00:00 11,8 9,5 10,0 16,6 19,3 10 6 18 10 NE 1024,1 40 22 0,0
30.10.2020 07:00:00 10,9 8,8 9,6 16,7 19,3 11 6 22 12 NE 1023,7 35 0 0,0
30.10.2020 06:00:00 10,8 9,1 9,6 16,8 19,4 14 8 22 12 NNE 1023,3 40 0 0,0
30.10.2020 05:00:00 10,8 9,1 9,8 16,9 19,3 13 7 19 10 NE 1023,3 37 0 0,0
30.10.2020 04:00:00 11,5 9,2 9,9 16,9 19,3 9 5 19 10 NE 1022,7 36 0 0,0
30.10.2020 03:00:00 11,3 9,0 10,4 17,0 19,4 11 6 22 12 NE 1022,7 36 0 0,0
30.10.2020 02:00:00 11,4 9,3 10,5 17,0 19,3 13 7 22 12 NNE 1023,2 35 0 0,0
30.10.2020 01:00:00 11,5 9,6 10,5 17,1 19,4 14 7 21 11 NNE 1023,4 25 0 0,0
30.10.2020 00:00:00 11,6 9,8 10,8 17,1 19,4 14 7 18 10 NE 1023,4 20 0 0,0
29.10.2020 23:00:00 12,7 10,6 11,9 17,1 19,4 10 5 17 9 NE 1023,5 20 0 0,0
29.10.2020 22:00:00 13,1 10,6 12,2 17,2 19,4 11 6 19 11 NNE 1023,4 20 0 0,0
29.10.2020 21:00:00 13,3 11,0 12,4 17,1 19,4 11 6 21 11 NE 1023,0 15 0 0,0
29.10.2020 20:00:00 14,0 11,5 13,1 17,1 19,5 9 5 21 11 NNE 1022,8 16 0 0,0
29.10.2020 19:00:00 15,4 12,3 13,8 17,0 19,4 8 5 15 8 NE 1022,4 17 0 0,0
29.10.2020 18:00:00 16,7 12,4 14,5 16,9 19,5 5 3 10 5 E 1022,0 18 0 0,0
29.10.2020 17:00:00 17,8 12,5 17,2 16,8 19,5 7 4 18 10 NW 1021,8 20 0 0,0
29.10.2020 16:00:00 18,4 12,8 18,5 16,7 19,5 11 6 26 14 W 1021,9 17 0 0,0
29.10.2020 15:00:00 18,8 13,0 19,3 16,5 19,4 15 8 29 16 W 1021,6 19 4 0,0
29.10.2020 14:00:00 19,9 13,1 21,6 16,4 19,5 17 9 25 13 WSW 1021,5 19 27 0,0
29.10.2020 13:00:00 19,7 12,5 19,8 16,3 19,5 10 5 18 10 WNW 1021,7 31 12 0,0
29.10.2020 12:00:00 19,2 13,1 20,1 16,3 19,5 11 6 18 10 WSW 1022,5 20 15 0,0
29.10.2020 11:00:00 18,5 12,9 20,6 16,4 19,5 8 4 11 6 SSW 1022,6 37 16 0,0
29.10.2020 10:00:00 16,7 13,0 15,5 16,4 19,5 6 3 14 7 NE 1022,5 41 19 0,0
29.10.2020 09:00:00 14,0 11,5 12,5 16,5 19,5 8 5 17 9 NE 1022,5 48 0 0,0
29.10.2020 08:00:00 12,2 10,4 11,0 16,5 19,5 11 6 16 9 NE 1022,0 46 0 0,0
29.10.2020 07:00:00 11,6 9,7 10,2 16,6 19,5 10 5 15 8 NE 1021,5 60 0 0,0
29.10.2020 06:00:00 11,4 9,5 10,1 16,7 19,5 10 6 17 9 NNE 1021,2 60 0 0,0
29.10.2020 05:00:00 11,3 9,0 9,6 16,8 19,6 9 5 21 11 NE 1021,6 60 0 0,0
29.10.2020 04:00:00 11,8 9,5 10,9 16,9 19,5 10 5 19 10 NE 1021,6 59 0 0,0
29.10.2020 03:00:00 11,0 9,1 9,8 17,0 19,5 10 6 21 11 NE 1021,6 55 0 0,0
29.10.2020 02:00:00 10,4 8,8 9,2 17,0 19,5 14 7 19 11 NE 1021,7 47 0 0,0
29.10.2020 01:00:00 10,6 8,7 9,6 17,1 19,5 11 6 19 11 NNE 1021,8 45 0 0,0
29.10.2020 00:00:00 10,4 8,7 9,5 17,2 19,5 13 7 20 11 NE 1021,8 37 0 0,0
28.10.2020 23:00:00 10,7 9,0 9,8 17,3 19,6 13 7 20 11 NNE 1022,0 32 0 0,0
28.10.2020 22:00:00 11,1 9,2 10,2 17,3 19,5 12 6 19 10 NE 1022,0 27 0 0,0
28.10.2020 21:00:00 11,9 9,8 10,8 17,3 19,5 11 6 16 8 NE 1021,9 24 0 0,0
28.10.2020 20:00:00 12,4 10,3 11,4 17,3 19,5 10 6 18 10 NE 1021,5 26 0 0,0
28.10.2020 19:00:00 13,9 11,1 12,1 17,3 19,5 8 4 13 7 NE 1020,9 38 0 0,0
28.10.2020 18:00:00 15,5 10,7 12,2 17,2 19,6 6 3 10 6 NE 1020,4 54 9 0,0
28.10.2020 17:00:00 17,5 10,8 16,1 17,0 19,5 10 5 18 10 WSW 1020,0 52 60 0,0
28.10.2020 16:00:00 18,6 12,1 19,2 16,9 19,6 12 6 19 11 SW 1019,9 44 60 0,0
28.10.2020 15:00:00 19,3 12,3 19,5 16,8 19,6 13 7 20 11 SSW 1019,6 53 60 0,0
28.10.2020 14:00:00 19,6 12,1 20,6 16,7 19,6 14 8 20 11 SW 1019,7 58 60 0,0
28.10.2020 13:00:00 19,5 9,7 21,7 16,6 19,6 10 6 18 10 SW 1019,7 60 60 0,0
28.10.2020 12:00:00 18,8 10,1 25,6 16,6 19,6 8 4 13 7 SW 1019,6 38 60 0,0
28.10.2020 11:00:00 18,4 9,2 23,6 16,7 19,6 7 4 12 7 SW 1019,8 41 60 0,0
28.10.2020 10:00:00 15,8 9,2 18,1 16,8 19,6 6 3 16 8 NE 1019,6 40 60 0,0
28.10.2020 09:00:00 12,4 8,3 12,3 16,9 19,6 11 6 21 11 NNE 1019,2 51 60 0,0
28.10.2020 08:00:00 9,2 6,6 6,9 17,0 19,6 13 7 23 12 NNE 1018,9 34 39 0,0
28.10.2020 07:00:00 8,4 6,0 6,7 17,0 19,6 10 6 27 14 NE 1017,9 60 0 0,0
28.10.2020 06:00:00 7,8 5,8 6,7 17,2 19,6 14 8 26 14 NE 1017,7 60 0 0,0
28.10.2020 05:00:00 8,4 5,9 7,1 17,3 19,6 16 8 24 13 NNE 1017,1 60 0 0,0
28.10.2020 04:00:00 8,2 6,0 7,1 17,3 19,6 16 9 24 13 NNE 1016,8 60 0 0,0
28.10.2020 03:00:00 8,4 6,4 7,1 17,4 19,6 16 9 24 13 NNE 1017,0 58 0 0,0
28.10.2020 02:00:00 8,7 6,5 7,4 17,5 19,6 14 8 27 14 NNE 1017,0 56 0 0,0
28.10.2020 01:00:00 9,0 6,8 7,7 17,6 19,6 14 8 23 13 NNE 1016,8 57 0 0,0
28.10.2020 00:00:00 9,6 7,2 8,2 17,7 19,6 14 7 23 12 NNE 1016,5 54 0 0,0
27.10.2020 23:00:00 10,4 8,0 9,0 17,7 19,6 14 7 24 13 NNE 1016,5 49 0 0,0
27.10.2020 22:00:00 11,4 9,0 10,2 17,8 19,6 12 7 22 12 NNE 1016,4 45 0 0,0
27.10.2020 21:00:00 11,3 9,4 10,1 17,8 19,6 12 7 20 11 NE 1015,7 40 0 0,0
27.10.2020 20:00:00 11,8 9,7 10,2 17,8 19,6 11 6 19 10 NNE 1015,2 35 0 0,0
27.10.2020 19:00:00 12,1 10,2 10,6 17,8 19,6 11 6 18 10 NE 1015,0 35 0 0,0
27.10.2020 18:00:00 13,0 10,2 10,5 17,7 19,6 8 4 14 7 ENE 1014,6 35 0 0,0
27.10.2020 17:00:00 14,4 10,2 12,4 17,7 19,6 7 4 27 14 NE 1014,0 43 9 0,2
27.10.2020 16:00:00 16,2 9,8 12,4 17,6 19,6 7 4 40 21 NW 1013,7 19 40 0,2
27.10.2020 15:00:00 17,5 8,9 16,3 17,5 19,6 16 9 33 18 WNW 1013,3 19 34 0,0
27.10.2020 14:00:00 16,7 7,9 14,9 17,4 19,6 16 9 32 18 WNW 1013,3 20 26 0,0
27.10.2020 13:00:00 16,8 8,2 15,6 17,4 19,6 20 11 31 17 NW 1013,6 20 17 0,0
27.10.2020 12:00:00 15,6 9,7 14,4 17,4 19,6 4 2 32 17 N 1013,7 16 9 0,0
27.10.2020 11:00:00 16,6 10,4 14,8 17,5 19,6 8 4 31 17 WNW 1013,4 15 26 0,2
27.10.2020 10:00:00 15,4 9,5 12,7 17,5 19,6 16 9 33 18 WNW 1013,0 17 16 0,2
27.10.2020 09:00:00 15,9 9,1 13,3 17,6 19,6 16 8 39 21 WNW 1012,9 15 12 0,2
27.10.2020 08:00:00 13,4 10,0 11,3 17,7 19,6 3 2 19 11 NNE 1012,3 24 0 0,0
27.10.2020 07:00:00 14,6 8,8 10,9 17,7 19,6 13 7 24 13 WNW 1011,9 17 0 0,0
27.10.2020 06:00:00 14,0 8,8 11,3 17,8 19,6 7 4 24 13 W 1011,3 16 0 0,0
27.10.2020 05:00:00 15,2 8,9 12,3 17,9 19,6 16 9 33 18 W 1011,1 13 0 0,0
27.10.2020 04:00:00 15,4 9,3 12,3 17,9 19,6 14 8 29 16 W 1011,1 13 0 0,0
27.10.2020 03:00:00 15,4 9,5 12,0 18,0 19,6 21 11 38 21 W 1010,8 12 0 0,0
27.10.2020 02:00:00 15,5 10,5 11,8 18,0 19,6 16 8 28 15 W 1010,7 13 0 0,0
27.10.2020 01:00:00 15,7 10,0 11,8 18,1 19,6 19 10 30 16 W 1010,6 13 0 0,0
27.10.2020 00:00:00 15,5 10,0 11,4 18,1 19,6 22 12 38 21 W 1009,9 17 0 0,0
26.10.2020 23:00:00 12,8 11,7 11,6 18,2 19,6 8 5 16 9 NNE 1010,1 27 0 0,0
26.10.2020 22:00:00 12,8 11,7 11,7 18,2 19,6 4 2 15 8 E 1009,9 42 0 0,0
26.10.2020 21:00:00 13,2 12,1 12,2 18,3 19,6 7 4 22 12 ENE 1009,9 20 0 0,2
26.10.2020 20:00:00 13,7 12,1 12,3 18,3 19,6 19 11 28 15 W 1009,8 6 0 0,4
26.10.2020 19:00:00 13,5 11,9 12,2 18,3 19,6 11 6 19 10 E 1008,3 34 0 0,4
26.10.2020 18:00:00 13,5 12,1 12,6 18,3 19,6 5 3 25 13 NNE 1008,8 22 0 0,0
26.10.2020 17:00:00 13,6 12,2 12,6 18,3 19,6 14 7 24 13 ENE 1007,8 6 0 1,2
26.10.2020 16:00:00 14,4 13,1 13,0 18,2 19,6 10 5 40 22 ESE 1008,2 3,3 0 4,0
26.10.2020 15:00:00 14,9 13,3 13,7 18,1 19,6 25 14 84 46 NNW 1007,3 3,7 0 3,7
26.10.2020 14:00:00 20,4 14,7 20,0 18,1 19,6 35 19 53 29 S 1006,7 17 0 0,0
26.10.2020 13:00:00 20,7 15,3 21,5 18,0 19,6 29 16 48 26 S 1008,1 17 17 0,0
26.10.2020 12:00:00 20,9 15,4 21,6 18,0 19,6 28 15 50 27 S 1009,3 15 32 0,0
26.10.2020 11:00:00 20,3 15,3 21,7 18,0 19,6 25 14 42 23 S 1010,1 20 20 0,0
26.10.2020 10:00:00 20,3 15,1 18,5 18,0 19,6 19 11 34 18 S 1010,3 18 7 0,0
26.10.2020 09:00:00 19,3 15,6 18,3 18,1 19,6 16 9 31 17 S 1010,8 14 0 0,0
26.10.2020 08:00:00 18,3 15,5 15,6 18,1 19,6 7 4 19 10 SSE 1010,9 18 0 0,0
26.10.2020 07:00:00 16,2 13,7 14,8 18,1 19,6 6 3 14 8 NE 1010,6 33 0 0,0
26.10.2020 06:00:00 16,1 13,6 14,7 18,2 19,6 6 4 14 8 E 1011,2 37 0 0,0
26.10.2020 05:00:00 16,3 13,8 14,5 18,2 19,6 8 5 17 9 ENE 1011,9 37 0 0,0
26.10.2020 04:00:00 16,5 13,8 14,8 18,2 19,6 10 5 17 9 E 1012,6 37 0 0,0
26.10.2020 03:00:00 16,5 13,6 15,0 18,3 19,6 8 4 15 8 E 1013,0 39 0 0,0
26.10.2020 02:00:00 18,4 15,3 15,1 18,4 19,6 9 5 20 11 SSE 1013,8 17 0 0,0
26.10.2020 01:00:00 16,6 14,1 15,0 18,3 19,6 7 4 16 9 SE 1014,2 34 0 0,0
26.10.2020 00:00:00 16,8 13,3 15,2 18,4 19,6 9 5 14 7 E 1014,7 44 0 0,0
25.10.2020 23:00:00 17,0 13,3 15,7 18,4 19,6 7 4 16 9 ENE 1015,0 51 0 0,0

tt = Température de l'air
td = dewpoint
tt 5cm = Température de l'air 5cm
tt -20cm = Température de l'air -20cm
tt -100cm = Température de l'air -100cm
ff = Vitesse du vent
fx = gusts
dd = Direction du vent
ppp = reduced air pressure
vv = visibility
sd = Ensoleillement
rr = Quantités de précipitations

stations d'obs. à proximité